星链-4463 (STARLINK-4463 )

导读

STARLINK-4463是美国太空探索技术公司(SpaceX)研制并运营的星链(Starlink)卫星,属于Starlink v2.0 mini平台,于2022年8月31日发射。该卫星运行在近地轨道,轨道倾角53.157°,近地点约474公里,远地点约476公里,周期约94分钟。作为星链巨型低轨互联网星座的组成部分,它旨在为全球提供高速卫星互联网接入服务,目前仍在轨正常工作。

Basic Information
目录编号:
53659
目录名称:
STARLINK-4463
国际标识:
2022-105M
轨道中心:
EARTH
卫星名称:
星链-4463
卫星全名:
星链-4463 (STARLINK-4463 )
卫星状态:
已陨落 最后检测时间 2026-02-07
发射日期:
2022-08-31 UTC
国别 :
美国 (US)
星等 :
--
Orbit Information
数据来源 国际轨道数据
星历时间: 2026-02-07T14:20:05+0800
轨道信息已过期126天
半长轴: 6514.879km
偏心率: 0.0008891
轨道倾角: 97.576°
近地点辐角 235.894°
升交点赤经 287.329°
平近点角 274.875°
近地点: 130.949km
远地点: 142.535km
周期: 87.221分钟
每日圈数: 16.509856
Detailed Information
固有亮度:
5
最大亮度:
2.5
卫星平台:
Starlink v1.5
覆盖范围:
全球
运营商:
太空探索技术公司
运营商所在国:
美国
制造商(研发单位):
太空探索技术公司
制造商所在国:
美国
使用方式:
暂无
Satellite Introduction
星链(Starlink)计划是由太空探索技术公司(SpaceX)提出的一个巨型低轨卫星互联网星座项目,计划在2019年至2024年间在太空搭建由约1.2万颗卫星组成的“星链”网络,其中1584颗将部署在地球上空550千米处的近地轨道,并从2020年开始工作。该卫星仍在工作。